Weather reports worldwide

Advertisment
Altnaharra, United Kingdom (3044): temperature & dewpoint: 16.09.2018 22:00:00 - 22.09.2018 22:00:00 (BST)Altnaharra, United Kingdom (3044): temperature -20cm & temperature -100cm: 16.09.2018 22:00:00 - 22.09.2018 22:00:00 (BST)Altnaharra, United Kingdom (3044): wind speed & gusts: 16.09.2018 22:00:00 - 22.09.2018 22:00:00 (BST)Altnaharra, United Kingdom (3044): wind direction: 16.09.2018 22:00:00 - 22.09.2018 22:00:00 (BST)Altnaharra, United Kingdom (3044): reduced air pressure: 16.09.2018 22:00:00 - 22.09.2018 22:00:00 (BST)Altnaharra, United Kingdom (3044): visibility: 16.09.2018 22:00:00 - 22.09.2018 22:00:00 (BST)Altnaharra, United Kingdom (3044): sunshine duration: 16.09.2018 22:00:00 - 22.09.2018 22:00:00 (BST)Altnaharra, United Kingdom (3044): precipitation: 16.09.2018 22:00:00 - 22.09.2018 22:00:00 (BST)
Date & Time tt [°C] td [°C] tt -20cm [°C] tt -100cm [°C] ff [km/h] ff [kn] fx [km/h] fx [kn] dd ppp [hPa] vv [km] sd [min] rr [mm]
22.09.2018 22:00:00 1,3 0,6 - - 2 1 - - E 1014,7 18 0 0,0
22.09.2018 21:00:00 2,8 1,6 - - 4 2 - - SE 1014,2 23 0 0,0
22.09.2018 20:00:00 5,5 4,4 - - 4 2 - - SSW 1013,6 35 0 0,0
22.09.2018 19:00:00 6,4 4,4 - - 13 7 - - W 1012,8 27 12 0,0
22.09.2018 18:00:00 8,6 4,7 - - 26 14 - - W 1011,9 35 36 0,0
22.09.2018 17:00:00 9,2 4,8 - - 26 14 - - W 1011,7 45 36 0,0
22.09.2018 16:00:00 10,4 5,4 - - 31 17 - - W 1011,2 21 42 0,0
22.09.2018 15:00:00 9,9 6,3 - - 26 14 - - WSW 1010,9 35 12 0,6
22.09.2018 14:00:00 8,7 5,9 - - 24 13 - - W 1010,6 12 12 0,4
22.09.2018 13:00:00 10,1 6,6 - - 28 15 48 26 W 1009,6 35 30 0,4
22.09.2018 12:00:00 10,7 7,1 - - 31 17 46 25 W 1008,9 28 30 0,0
22.09.2018 11:00:00 9,5 6,6 - - 22 12 - - W 1008,6 20 6 0,2
22.09.2018 10:00:00 8,0 6,1 11,7 12,4 18 10 - - WSW 1008,1 50 0 0,4
22.09.2018 09:00:00 8,0 5,8 - - 24 13 - - WSW 1007,4 45 0 0,4
22.09.2018 08:00:00 7,8 6,1 - - 18 10 48 26 W 1006,2 23 0 0,8
22.09.2018 07:00:00 7,7 6,8 - - 31 17 61 33 W 1005,2 8 0 0,8
22.09.2018 06:00:00 7,8 7,3 - - 44 24 61 33 W 1004,2 1,9 0 5,0
22.09.2018 05:00:00 7,4 6,6 - - 44 24 70 38 WSW 1003,7 4,1 0 1,2
22.09.2018 04:00:00 8,1 4,1 - - 44 24 63 34 WSW 1003,1 8 0 0,0
22.09.2018 03:00:00 7,9 3,7 - - 35 19 59 32 WSW 1003,3 30 0 0,2
22.09.2018 02:00:00 7,6 4,9 - - 31 17 54 29 WSW 1003,2 26 0 0,6
22.09.2018 01:00:00 6,8 4,6 - - 37 20 65 35 WSW 1003,1 17 - 1,2
22.09.2018 00:00:00 7,5 4,1 - - 31 17 61 33 WSW 1002,5 45 0 0,2
21.09.2018 23:00:00 8,3 4,0 - - 31 17 54 29 SW 1002,0 30 0 0,0
21.09.2018 22:00:00 8,0 4,2 - - 29 16 - - SW 1001,9 30 0 0,0
21.09.2018 21:00:00 7,6 4,6 - - 26 14 - - WSW 1001,9 45 0 0,0
21.09.2018 20:00:00 7,1 4,6 - - 24 13 57 31 WSW 1001,7 40 0 0,8
21.09.2018 19:00:00 8,2 5,1 - - 11 6 - - WSW 1001,2 40 18 0,0
21.09.2018 18:00:00 8,4 5,7 - - 22 12 46 25 W 1000,9 50 18 0,2
21.09.2018 17:00:00 9,8 5,1 - - 28 15 52 28 W 1000,4 30 42 0,0
21.09.2018 16:00:00 10,7 4,3 - - 37 20 54 29 W 999,6 45 42 0,0
21.09.2018 15:00:00 10,7 3,0 - - 35 19 55 30 W 998,7 45 18 0,0
21.09.2018 14:00:00 10,3 4,5 - - 26 14 52 28 W 998,0 35 18 0,0
21.09.2018 13:00:00 9,6 5,1 - - 34 18 52 28 W 996,8 40 6 0,0
21.09.2018 12:00:00 8,6 5,1 - - 28 15 - - WNW 995,8 14 0 0,0
21.09.2018 11:00:00 8,4 4,6 - - 24 13 - - WNW 994,9 35 0 0,0
21.09.2018 10:00:00 8,2 5,8 12,0 12,7 24 13 - - NW 993,8 26 0 0,2
21.09.2018 09:00:00 7,1 6,1 - - 16 9 - - WNW 993,1 22 0 0,8
21.09.2018 08:00:00 6,9 6,4 - - 13 7 - - W 992,4 12 0 2,0
21.09.2018 07:00:00 6,6 6,0 - - 16 9 - - WSW 992,0 17 0 2,6
21.09.2018 06:00:00 6,8 6,1 - - 13 7 - - WSW 991,9 10 0 4,0
21.09.2018 05:00:00 7,3 6,2 - - 15 8 - - W 992,0 27 0 0,4
21.09.2018 04:00:00 7,8 6,0 - - 4 2 - - WNW 992,5 16 0 0,2
21.09.2018 03:00:00 7,4 6,3 - - 4 2 - - W 993,0 45 0 0,0
21.09.2018 02:00:00 6,4 5,7 - - 2 1 - - SE 993,8 40 0 0,0
21.09.2018 01:00:00 7,0 6,0 - - 4 2 - - WSW 994,2 50 - 0,0
21.09.2018 00:00:00 6,7 5,8 - - 4 2 - - W 995,1 50 0 0,0
20.09.2018 23:00:00 7,9 6,7 - - 5 3 - - S 995,9 40 0 0,0
20.09.2018 22:00:00 7,9 6,7 - - 11 6 - - SSE 996,2 40 0 0,0
20.09.2018 21:00:00 8,5 7,4 - - 11 6 - - S 997,0 50 0 0,0
20.09.2018 20:00:00 8,3 7,0 - - 11 6 - - S 997,3 50 0 0,0
20.09.2018 19:00:00 9,3 8,4 - - 9 5 - - S 997,6 22 0 0,2
20.09.2018 18:00:00 9,5 8,2 - - 11 6 - - SSW 997,9 8 0 0,6
20.09.2018 17:00:00 11,7 7,9 - - 9 5 - - SSW 997,7 18 18 0,0
20.09.2018 16:00:00 11,2 8,1 - - 24 13 - - SW 997,2 30 12 0,4
20.09.2018 15:00:00 10,8 7,8 - - 16 9 - - SW 997,9 35 0 0,0
20.09.2018 14:00:00 11,2 8,3 - - 22 12 - - SW 997,9 16 18 0,0
20.09.2018 13:00:00 12,1 8,1 - - 28 15 52 28 SW 996,6 19 36 0,0
20.09.2018 12:00:00 10,7 8,1 - - 22 12 52 28 SSW 995,6 9 6 0,2
20.09.2018 11:00:00 10,0 7,3 - - 26 14 57 31 S 994,4 13 18 0,2
20.09.2018 10:00:00 9,3 6,2 12,2 12,7 24 13 54 29 SSW 993,9 18 6 0,2
20.09.2018 09:00:00 9,7 5,3 - - 35 19 67 36 S 993,3 17 30 0,0
20.09.2018 08:00:00 9,7 3,9 - - 28 15 52 28 SSW 992,9 30 12 0,0
20.09.2018 07:00:00 9,0 4,7 - - 21 11 46 25 S 993,3 30 0 0,2
20.09.2018 06:00:00 9,2 4,7 - - 26 14 57 31 S 993,7 4,5 0 0,2
20.09.2018 05:00:00 9,5 4,2 - - 26 14 48 26 SSW 992,7 40 0 0,2
20.09.2018 04:00:00 8,9 6,0 - - 24 13 54 29 SSW 992,4 7 0 0,6
20.09.2018 03:00:00 8,7 6,2 - - 18 10 - - SSW 992,0 28 0 1,4
20.09.2018 02:00:00 8,5 6,5 - - 16 9 46 25 S 992,1 5 0 1,0
20.09.2018 01:00:00 8,9 5,6 - - 24 13 - - S 991,5 45 - 0,0
20.09.2018 00:00:00 9,6 5,0 - - 24 13 50 27 S 991,0 40 0 0,0
19.09.2018 23:00:00 9,3 5,5 - - 13 7 48 26 S 991,6 40 0 0,2
19.09.2018 22:00:00 9,7 4,6 - - 28 15 54 29 SW 989,6 35 0 0,2
19.09.2018 21:00:00 9,9 5,2 - - 24 13 46 25 SSW 989,3 35 0 0,0
19.09.2018 20:00:00 9,7 6,3 - - 24 13 52 28 SSW 988,6 22 0 0,4
19.09.2018 19:00:00 10,3 5,8 - - 26 14 61 33 SW 986,8 18 6 0,2
19.09.2018 18:00:00 10,6 6,2 - - 29 16 63 34 SW 985,3 45 12 0,0
19.09.2018 17:00:00 9,2 8,1 - - 46 25 85 46 WSW 983,6 22 0 2,2
19.09.2018 16:00:00 10,0 8,5 - - 11 6 - - WSW 978,2 13 0 0,4
19.09.2018 15:00:00 11,1 7,3 - - 13 7 - - S 977,3 50 24 0,0
19.09.2018 14:00:00 9,7 8,8 - - 5 3 - - SE 978,0 40 0 0,2
19.09.2018 13:00:00 8,8 7,8 - - 22 12 55 30 ENE 979,6 8 0 4,6
19.09.2018 12:00:00 8,8 7,0 - - 29 16 55 30 E 982,7 5 0 4,2
19.09.2018 11:00:00 9,3 6,2 - - 28 15 54 29 SE 985,3 7 0 0,8
19.09.2018 10:00:00 11,4 4,7 12,9 12,7 26 14 48 26 SSE 987,6 50 0 0,0
19.09.2018 09:00:00 10,3 6,7 - - 18 10 - - SSE 989,2 45 0 0,0
19.09.2018 08:00:00 9,9 5,8 - - 26 14 - - SSE 990,6 50 0 0,0
19.09.2018 07:00:00 9,2 5,3 - - 16 9 - - S 992,6 50 0 0,0
19.09.2018 06:00:00 8,7 5,8 - - 13 7 - - S 992,9 35 0 0,0
19.09.2018 05:00:00 9,3 6,0 - - 28 15 - - S 992,0 35 0 0,0
19.09.2018 04:00:00 8,3 6,1 - - 18 10 - - S 991,7 30 0 0,0
19.09.2018 03:00:00 9,1 7,1 - - 21 11 - - S 991,7 28 0 1,8
19.09.2018 02:00:00 9,0 7,2 - - 13 7 - - S 992,0 5 0 0,4
19.09.2018 01:00:00 8,6 6,6 - - 15 8 - - SSE 992,2 50 - 0,2
19.09.2018 00:00:00 10,5 7,4 - - 9 5 - - S 992,1 30 0 0,0
18.09.2018 23:00:00 11,2 8,9 - - 13 7 - - S 992,6 50 0 0,2
18.09.2018 22:00:00 11,1 9,7 - - 5 3 - - S 993,0 8 0 0,2
18.09.2018 21:00:00 10,7 8,8 - - 5 3 - - WNW 992,9 50 0 0,0
18.09.2018 20:00:00 12,0 9,4 - - 8 4 - - SW 992,9 50 0 0,0
18.09.2018 19:00:00 12,7 10,6 - - 11 6 - - SSW 992,5 45 12 0,0
18.09.2018 18:00:00 12,3 11,8 - - 5 3 - - WNW 991,7 50 0 0,4
18.09.2018 17:00:00 12,3 11,6 - - 4 2 - - WSW 991,5 2,5 0 0,2
18.09.2018 16:00:00 12,2 11,5 - - 5 3 - - E 991,7 4,0 0 0,6
18.09.2018 15:00:00 11,9 11,4 - - 9 5 - - NNE 991,8 9 0 2,8
18.09.2018 14:00:00 11,7 11,2 - - 5 3 - - N 992,2 4,7 0 3,2
18.09.2018 13:00:00 12,1 11,0 - - 4 2 - - N 992,2 3,8 0 0,2
18.09.2018 12:00:00 12,6 10,6 - - 11 6 - - NNW 992,8 45 0 0,0
18.09.2018 11:00:00 12,7 10,3 - - 9 5 - - N 993,4 50 0 0,0
18.09.2018 10:00:00 12,0 10,2 12,9 12,7 5 3 - - NNE 993,9 50 0 0,0
18.09.2018 09:00:00 11,6 10,4 - - 5 3 - - E 994,0 45 0 0,0
18.09.2018 08:00:00 11,4 10,5 - - 4 2 - - ESE 994,3 50 0 0,0
18.09.2018 07:00:00 11,3 10,6 - - 9 5 - - NNW 994,3 10 0 0,0
18.09.2018 06:00:00 11,6 10,9 - - 8 4 - - W 994,3 50 0 0,0
18.09.2018 05:00:00 12,9 11,7 - - 13 7 - - WSW 994,0 50 0 0,0
18.09.2018 04:00:00 13,9 12,3 - - 21 11 - - W 993,3 50 0 0,0
18.09.2018 03:00:00 15,4 13,9 - - 11 6 - - S 992,5 40 0 0,0
18.09.2018 02:00:00 15,5 14,2 - - 16 9 - - S 991,9 20 0 0,8
18.09.2018 01:00:00 15,6 14,1 - - 22 12 - - S 991,6 22 - 0,2
18.09.2018 00:00:00 15,4 14,1 - - 28 15 - - SSE 991,7 11 0 0,6
17.09.2018 23:00:00 15,6 13,8 - - 28 15 55 30 SSE 991,7 11 0 0,2
17.09.2018 22:00:00 15,3 13,1 - - 35 19 59 32 SE 991,9 8 0 1,6
17.09.2018 21:00:00 14,7 12,2 - - 13 7 - - SSE 993,0 15 0 0,8
17.09.2018 20:00:00 12,9 11,0 - - 26 14 46 25 ESE 994,4 20 0 0,4
17.09.2018 19:00:00 12,7 10,3 - - 26 14 48 26 ESE 995,9 30 0 0,0
17.09.2018 18:00:00 12,4 10,1 - - 22 12 - - ESE 997,3 30 0 0,2
17.09.2018 17:00:00 12,4 9,8 - - 26 14 - - ESE 999,1 30 0 1,0
17.09.2018 16:00:00 12,6 10,0 - - 16 9 - - SE 1000,7 9 0 1,2
17.09.2018 15:00:00 13,2 10,4 - - 13 7 - - SE 1002,0 30 0 0,2
17.09.2018 14:00:00 12,8 10,2 - - 15 8 - - ESE 1003,1 35 0 0,0
17.09.2018 13:00:00 12,9 10,2 - - 11 6 - - S 1003,8 23 0 0,4
17.09.2018 12:00:00 12,3 9,6 - - 15 8 - - S 1004,7 24 0 0,0
17.09.2018 11:00:00 11,9 9,8 - - 13 7 - - S 1005,6 30 0 0,2
17.09.2018 10:00:00 11,5 8,8 12,7 12,7 15 8 - - SSE 1006,1 45 0 0,0
17.09.2018 09:00:00 11,4 7,8 - - 11 6 - - S 1006,2 45 0 0,0
17.09.2018 08:00:00 10,5 7,8 - - 4 2 - - WSW 1006,3 30 0 0,0
17.09.2018 07:00:00 9,5 7,3 - - 4 2 - - ENE 1006,2 45 0 0,0
17.09.2018 06:00:00 10,1 7,6 - - 4 2 - - SE 1006,5 45 0 0,0
17.09.2018 05:00:00 10,3 7,3 - - 8 4 - - ESE 1006,6 45 0 0,0
17.09.2018 04:00:00 9,7 7,9 - - 5 3 - - E 1006,7 40 0 0,0
17.09.2018 03:00:00 9,4 7,4 - - 5 3 - - S 1006,6 50 0 0,4
17.09.2018 02:00:00 9,3 8,6 - - 11 6 - - SSE 1006,4 7 0 0,2
17.09.2018 01:00:00 9,0 7,8 - - 9 5 - - SSE 1006,7 10 - 0,2
17.09.2018 00:00:00 9,1 5,9 - - 11 6 - - SSE 1006,7 40 0 0,0
16.09.2018 23:00:00 9,8 6,5 - - 9 5 - - SE 1006,6 45 0 0,0
16.09.2018 22:00:00 9,2 6,1 - - 5 3 - - SE 1007,3 30 0 0,0

tt = temperature
td = dewpoint
tt -20cm = temperature -20cm
tt -100cm = temperature -100cm
ff = wind speed
fx = gusts
dd = wind direction
ppp = reduced air pressure
vv = visibility
sd = sunshine duration
rr = precipitation

Next stations